Home > Weather > Kohtla-Järve > Past weeks

Flag for Estonia Weather for the Past 2 Weeks in Kohtla-Järve, Estonia

Now
24 °F

Snow flurries. Overcast.


Feels Like: 19 °F
Forecast: 33 / 37 °F
Wind: 5 mph from Northwest

Location: Johvi

Current Time: Feb 6, 2016 at 2:25:32 AM

Latest Report: Feb 6, 2016 at 1:00 AM


Visibility: 17 mi

Pressure: 29.93 "Hg

Humidity: 80%

Dew point: 19 °F

Location of Kohtla-JärveLocation

Historic Weather in Kohtla-Järve — Graph

°F

Kohtla-Järve Temperature Yesterday

Maximum temperature yesterday: 33 °F (at 12:00 PM)
Minimum temperature yesterday: 24 °F (at 8:00 PM)
Average temperature yesterday: 29 °F

High & Low Weather Summary for the Past Weeks

 TemperatureHumidityPressure
High40 °F (Jan 28, 1:00 PM)99% (Jan 27, 10:00 PM)30.48 "Hg (Jan 27, 10:00 PM)
Low-15 °F (Jan 22, 10:00 PM)75% (Jan 30, 3:00 PM)28.85 "Hg (Feb 2, 10:00 AM)
Average26 °F91%29.63 "Hg
* Reported Jan 22 3:00 AM — Midnight between Feb 5 and Feb 6, Kohtla-Järve, Weather by CustomWeather, © 2016

Note: Actual official high and low records may vary slightly from our data, if they occured in-between our weather recording intervals... More about our weather records

Advertising

Kohtla-Järve Weather History for the Previous 24 Hours

 ConditionsComfort  
Time TempWeatherWind HumidityBarometerVisibility
12:00 AM
Sat, Feb 6
24 °FOvercast.3 mph81%29.91 "Hg18 mi
10:00 PM
Fri, Feb 5
24 °FOvercast.5 mph83%29.86 "Hg31 mi
9:00 PM24 °FOvercast.6 mph84%29.84 "Hg13 mi
8:00 PM24 °FOvercast.5 mph84%29.80 "Hg31 mi
7:00 PM24 °FOvercast.7 mph84%29.77 "Hg31 mi
6:00 PM26 °FSnow flurries. Overcast.6 mph83%29.72 "Hg22 mi
5:00 PM26 °FOvercast.7 mph83%29.69 "Hg31 mi
4:00 PM27 °FOvercast.5 mph87%29.65 "Hg31 mi
3:00 PM29 °FOvercast.5 mph91%29.62 "Hg28 mi
2:00 PM29 °FLight snow. Low clouds.5 mph96%29.59 "Hg14 mi
1:00 PM32 °FSnow flurries. Low clouds.7 mph94%29.56 "Hg7 mi
12:00 PM33 °FOvercast.3 mph88%29.56 "Hg19 mi
11:00 AM33 °FOvercast.5 mph89%29.54 "Hg22 mi
10:00 AM32 °FFog.5 mph88%29.53 "Hg16 mi
9:00 AM32 °FOvercast.5 mph89%29.50 "Hg25 mi
8:00 AM31 °FOvercast.6 mph87%29.50 "Hg28 mi
7:00 AM31 °FOvercast.5 mph83%29.47 "Hg31 mi
5:00 AM31 °FLow clouds.5 mph94%29.47 "Hg28 mi
4:00 AM31 °FOvercast.5 mph94%29.44 "Hg31 mi
3:00 AM30 °FLow clouds.6 mph93%29.44 "Hg31 mi
2:00 AM30 °FLight snow. Low clouds.6 mph94%29.44 "Hg13 mi
Weather by CustomWeather, © 2016

See weather overviewHow to use our weather pages